Regional Weather Roundup
Issued by NWS Nashville, TN

Home | Current Version | Previous Version | Text Only | Print | Product List | Glossary On
Versions: 1 2 3 4 5 6 7 8 9 10 11 12 13 14 15 16 17 18 19 20 21 22 23 24 25 26 27 28 29 30 31 32 33 34 35 36 37 38 39 40 41 42 43 44 45 46 47 48 49 50
671
ASUS44 KOHX 200610
RWROHX
MIDDLE TENNESSEE HOURLY WEATHER ROUNDUP
NATIONAL WEATHER SERVICE NASHVILLE TN
1200 AM CST MON FEB 20 2017

NOTE: "FAIR" INDICATES FEW OR NO CLOUDS BELOW 12,000 FEET WITH
NO SIGNIFICANT WEATHER AND/OR OBSTRUCTIONS TO VISIBILITY.

* THESE REPORTS ARE NOT UNDER NWS QUALITY CONTROL AND MAY NOT
  REPORT WEATHER SUCH AS PRECIPITATION AND FOG.


TNZ005>011-023>034-057-059-062>066-078-080-200700
...NORTHERN MIDDLE TENNESSEE...

CITY           SKY/WX    TMP DP  RH WIND       PRES   REMARKS
CLARKSVILLE    MOCLDY    51  48  89 E5        30.12F
CROSSVILLE     CLEAR     43  42  97 CALM      30.18S
GALLATIN       CLEAR     45  45 100 CALM      30.17F FOG
DICKSON        PTCLDY    54  49  83 CALM      30.12F
LIVINGSTON     CLEAR     53  46  77 CALM      30.16S
NASHVILLE      PTCLDY    52  47  83 NE5       30.14F
PORTLAND       CLEAR     45  45 100 CALM      30.14F
SMYRNA         PTCLDY    46  45  96 CALM      30.15F
SPARTA         CLEAR     43  41  93 CALM      30.16R
SPRINGFIELD    PTCLDY    50  48  93 SE3       30.13S
WEST NASHVILLE CLEAR     50  48  93 CALM      30.14F
$$
TNZ056-058-060-061-075>077-079-093>097-200700
...SOUTHERN MIDDLE TENNESSEE...

CITY           SKY/WX    TMP DP  RH WIND       PRES   REMARKS
COLUMBIA       CLEAR    N/A N/A N/A E3        30.11F
FAYETTEVILLE   CLEAR     55  48  76 E5        30.14F HAZE
MCMINNVILLE    CLEAR     45  45 100 CALM      30.16R
MURFREESBORO   PTCLDY    49  46  89 CALM      30.14F
SHELBYVILLE    CLEAR     50  48  93 E7        30.15F
TULLAHOMA      CLEAR     46  45  93 CALM      30.15F
WINCHESTER     CLEAR     43  43 100 CALM      30.15S
$$


...KEY TO REMARKS...
VSB - VISIBILITY IN MILES
WCI - WIND CHILL INDEX
HX  - HEAT INDEX





USA.gov is the U.S. government's official web portal to all federal, state and local government web resources and services.